Location: Casa Rossa
(45.2389°N, 12.2056°E)
Time: 23:34:17
(UTC+00:00)

Cosmos 468 Rocket - Pass Details

Date: 14 July 2020
Orbit: 743 x 780 km, 74.0° (Epoch: 14 August)

Event Time Altitude Azimuth Distance (km) Brightness Sun altitude
Rises 02:34:18 0° 334° (NNW) 3,267 7.5 -9.5°
Reaches altitude 10° 02:36:44 10° 329° (NNW) 2,338 6.7 -9.2°
Maximum altitude 02:41:52 51° 255° (WSW) 978 4.2 -8.6°
Drops below altitude 10° 02:46:58 10° 181° (S) 2,327 6.1 -7.9°
Sets 02:49:24 0° 176° (S) 3,249 6.9 -7.6°
